{"data":{"norad_id":64746,"epoch":"2026-09-20T12:06:23.488992Z","epoch_age_seconds":127237,"freshness":"FRESH","line1":"1 64746U 25144Y   26263.50443853  .00025501  00000+0  76337-3 0  9995","line2":"2 64746  53.1604 341.6143 0001147  64.0220 296.0901 15.34397272 69743","mean_motion":15.34397272,"eccentricity":0.0001147,"inclination_deg":53.1604,"raan_deg":341.6143,"arg_perigee_deg":64.022,"mean_anomaly_deg":296.0901,"bstar":0.00076337,"rev_number":6974,"period_min":93.847924932964,"perigee_km":461.92670310446,"apogee_km":463.49599371558,"semimajor_km":6840.84834841,"source":"CELESTRAK","updated_at":"2026-09-21T09:00:35.413727Z"}}